Regional Weather Roundup
Issued by NWS

Home | Current Version | Previous Version | Text Only | Print | Product List | Glossary On
Versions: 1 2 3 4 5 6 7 8 9 10 11 12 13 14 15 16 17 18 19 20 21 22 23 24 25 26 27 28 29 30 31 32 33 34 35 36 37 38 39 40 41 42 43 44 45 46 47 48 49 50
000
ASUS43 KDTX 210410
RWRMI
MICHIGAN HOURLY REGIONAL WEATHER ROUNDUP
NATIONAL WEATHER SERVICE DETROIT/PONTIAC MI
1200 AM EDT MON APR 21 2014

NOTE: "FAIR" INDICATES FEW OR NO CLOUDS BELOW 12,000 FEET WITH NO
SIGNIFICANT WEATHER AND/OR OBSTRUCTION TO VISIBILITY.

MIZ047>049-052>055-059>063-066>070-074>076-081>083-210500-
SOUTHEAST LOWER MICHIGAN

CITY           SKY/WX    TMP DP  RH WIND       PRES   REMARKS
ADRIAN         CLEAR     51  37  58 NE5       30.11F
ALMA           CLOUDY    60  34  38 S6        30.06F
ANN ARBOR      CLEAR     47  34  60 CALM      30.12S
BAD AXE        MOCLDY    56  38  50 CALM      30.08F
DETROIT CITY   PTCLDY    54  32  43 S6        30.12S
DETROIT        PTCLDY    50  35  56 S6        30.12F
FLINT          CLEAR     60  31  33 S8        30.08F
GROSSE ILE     PTCLDY    46  41  81 S6        30.10F
HILLSDALE      CLEAR     55  32  42 CALM      30.10F
HOWELL         CLEAR     55  34  45 S7        30.09F

CITY           SKY/WX    TMP DP  RH WIND       PRES   REMARKS
JACKSON        CLEAR     50  33  52 SE7       30.09F
LAMBERTVILLE   PTCLDY    46  37  71 CALM      30.11F
LANSING        PTCLDY    58  31  35 S7        30.08F
LAPEER         NOT AVBL
MASON          PTCLDY    53  34  48 CALM      30.09F
MONROE         PTCLDY    48  37  66 CALM      30.10F
MT. CLEMENS    PTCLDY    44  35  71 S2        30.11S
PONTIAC        PTCLDY    54  35  48 CALM      30.10F
PORT HOPE        N/A     58  39  49 CALM      30.06F
PORT HURON     PTCLDY    50  36  57 S7        30.12S
TRI CITIES     MOCLDY    62  34  35 S7        30.06F
YPSILANTI      CLEAR     52  33  48 CALM      30.12F
$$
MIZ043>046-050>051-056>058-064>065-071>073-077>080-210500-
SOUTHWEST LOWER MICHIGAN

CITY           SKY/WX    TMP DP  RH WIND       PRES   REMARKS
BATTLE CREEK   CLEAR     58  32  37 S6        30.08F
BENTON HARBOR  PTCLDY    61  33  35 SE7       30.05F
BIG RAPIDS     CLOUDY    59  40  49 CALM      30.04F
COLDWATER      CLEAR     47  40  76 SE3       30.09F
HOLLAND        PTCLDY    61  37  41 S8        30.05F
GRAND RAPIDS   MOCLDY    60  34  37 S7        30.06F
KALAMAZOO      CLEAR     54  34  46 S5        30.08S
MARSHALL       CLEAR     47  36  65 CALM      30.08F
MUSKEGON       MOCLDY    59  37  44 SE7       30.03F
$$
MIZ016>042-210500-
NORTHERN LOWER MICHIGAN

CITY           SKY/WX    TMP DP  RH WIND       PRES   REMARKS
ALPENA         CLOUDY    48  39  71 W3        30.05S
BEAVER ISLAND  LGT RAIN  38  37  94 CALM      30.04S
BELLAIRE       CLOUDY    51  47  87 CALM      30.02F
CADILLAC       CLOUDY    54  50  87 CALM      30.04F
CHARLEVOIX     CLOUDY    45  35  70 N5        30.07S
FRANKFORT      MOCLDY    49  38  65 CALM      30.01F
GAYLORD        CLOUDY    53  40  61 CALM      30.04S
GRAYLING       LGT RAIN  58  40  51 CALM      30.05F
HARBOR SPRINGS CLOUDY    45  44  98 CALM      30.04S FOG
HOUGHTON LAKE  CLOUDY    52  51  97 CALM      30.06F
MANISTEE       CLOUDY    54  45  71 CALM      30.02F
OSCODA         RAIN      52  41  65 W7        30.07R
PELLSTON       CLOUDY    44  42  93 N5        30.06F
TRAVERSE CITY  CLOUDY    56  45  66 CALM      30.01F
$$
MIZ007>008-015-210500-
EASTERN UPPER MICHIGAN

CITY           SKY/WX    TMP DP  RH WIND       PRES   REMARKS
KINROSS        CLOUDY    37  37 100 SE6       30.03F VSB 1/2
MACKINAC ISLAN CLOUDY    38  38 100 SE7       30.04F FOG
NEWBERRY       CLEAR     33  33  98 SW9       30.01F FOG
S. S. MARIE    FOG       37  35  92 E3        30.03F VSB 3/4
$$
MIZ004>006-011>014-085-210500-
CENTRAL UPPER MICHIGAN

CITY           SKY/WX    TMP DP  RH WIND       PRES   REMARKS
MANISTIQUE     PTCLDY    35  33  94 CALM      30.01F FOG
ESCANABA       PTCLDY    39  36  87 E3        30.00F
MENOMINEE      MOCLDY    48  46  93 CALM      30.00S
SAWYER-GWINN   FOG       40  39  96 N5        30.00S VSB 3/4
$$
MIZ001>003-009>011-084-210500-
WESTERN UPPER MICHIGAN

CITY           SKY/WX    TMP DP  RH WIND       PRES   REMARKS
IRON MOUNTAIN  FOG       41  41 100 CALM      29.99S VSB 1/4
HOUGHTON       CLEAR     37  32  82 NW3       29.98F
COPPER HARBOR    N/A     44  36  73 W3        29.98F
IRONWOOD       CLEAR     37  28  70 CALM      29.96F
$$

ABBREVIATIONS USED IN REMARKS
   TC - TEMPERATURE IN CELSIUS
  WCI - WIND CHILL INDEX
   HX - HEAT INDEX
  VSB - VISIBILITY




USA.gov is the U.S. government's official web portal to all federal, state and local government web resources and services.